Weather observations for the past three days for
Jefferson - Ashe County Airport
Imperial (Metric)
Date Time (edt) Wind (mph) Vis. (mi.) Weather Sky Cond. Temperature (ºF) Relative Humidity Wind Chill (°F) Heat Index (°F) Pressure Precipitation (in)
Air Dwpt 6 hour altimeter (in) sea level (mb) 1 hr 3 hr 6 hr
Max. Min.
14 09:05 W 9 10.00 Fair CLR 71.6 59.4 65% 30.11 0.0
14 08:45 Calm 10.00 Fair CLR 69.8 61.7 76% 30.12 0.0
14 08:25 Calm 10.00 Fair CLR 68 59.7 75% 30.11 0.0
14 08:05 W 6 10.00 Fair CLR 69.3 58.8 70% 30.1 0.0
14 07:45 W 5 10.00 Fair CLR 68.5 58.6 71% 30.11 0.0
14 07:25 W 7 10.00 Fair CLR 65.3 58.8 80% 30.11 0.0
14 07:05 Calm 7.00 Fair CLR 59 57.7 96% 30.1 0.0
14 06:45 W 7 10.00 Fair CLR 65.8 58.1 76% 30.1 0.0
14 06:25 Calm 10.00 Fair CLR 60.8 57.9 90% 30.1 0.0
14 06:05 Calm 4.00 Fog/Mist CLR 59 58.3 97% 30.09 0.0
14 05:45 Calm 10.00 Fair CLR 61.2 58.8 92% 30.09 0.0
14 05:25 Calm 10.00 Fair CLR 59.9 58.6 96% 30.09 0.0
14 05:05 Calm 10.00 Fair CLR 59.4 57.6 94% 30.09 0.0
14 04:45 Calm 10.00 Partly Cloudy SCT004 59.4 58.3 96% 30.1 0.0
14 04:25 Calm 7.00 Partly Cloudy SCT004 58.8 57.9 97% 30.09 0.0
14 04:05 Calm 2.50 Fog/Mist SCT003 59 58.3 97% 30.09 0.0
14 03:45 Calm 10.00 Fair CLR 60.1 59 96% 30.1 0.0
14 03:25 Calm 10.00 Fair CLR 61.9 58.3 88% 30.11 0.0
14 03:05 Calm 10.00 Fair CLR 60.1 59.2 97% 30.1 0.0
14 02:45 Calm 10.00 Fair CLR 65.3 58.3 78% 30.11 0.0
14 02:25 W 5 10.00 Fair CLR 63.7 58.6 84% 30.11 0.0
14 02:05 Calm 10.00 Fair CLR 63.3 59 86% 30.11 0.0
14 01:45 Calm 10.00 Fair CLR 61.7 59.4 92% 30.11 0.0
14 01:25 Calm 10.00 Fair CLR 64 59.2 84% 30.12 0.0
14 01:05 Calm 10.00 Fair CLR 64.6 59.7 84% 30.12 0.0
14 00:45 Calm 10.00 Fair CLR 63.9 60.1 88% 30.12 0.0
14 00:25 Calm 10.00 Fair CLR 65.3 59.9 83% 30.13 0.0
14 00:05 Calm 10.00 Fair CLR 65.8 59.2 79% 30.13 0.0
13 23:45 Calm 10.00 Fair CLR 67.1 59.7 77% 30.13 0.0
13 23:25 Calm 10.00 Partly Cloudy SCT040 68 59.9 75% 30.14 0.0
13 23:05 Calm 10.00 Mostly Cloudy BKN040 68 60.1 76% 30.13 0.0
13 22:45 Calm 10.00 Overcast OVC040 68.7 59.9 74% 30.13 0.0
13 22:25 Calm 10.00 Overcast OVC040 68.9 60.1 74% 30.13 0.0
13 22:05 Calm 10.00 Overcast BKN036 BKN042 OVC060 68.9 60.8 76% 30.13 0.0
13 21:45 Calm 10.00 Overcast SCT042 BKN055 OVC075 69.1 61 76% 30.12 0.0
13 21:25 Calm 10.00 Overcast SCT055 BKN075 OVC090 68.2 61.7 80% 30.12 0.0
13 21:05 Calm 10.00 Overcast BKN055 BKN075 OVC085 68.4 61.3 78% 30.12 0.0
13 20:45 Calm 10.00 Overcast SCT049 OVC085 69.3 61.2 76% 30.12 0.0
13 20:25 Calm 10.00 Mostly Cloudy SCT043 SCT060 BKN095 69.8 61 74% 30.12 0.0
13 20:05 Calm 10.00 Partly Cloudy SCT043 SCT075 SCT090 70.3 61 72% 30.12 0.0
13 19:45 Calm 10.00 Mostly Cloudy SCT045 SCT075 BKN095 71.2 61.5 72% 30.12 0.0
13 19:25 Calm 10.00 Mostly Cloudy SCT041 SCT046 BKN080 71.1 61.5 72% 30.12 0.0
13 19:05 Calm 10.00 Overcast SCT041 BKN046 OVC060 71.1 61.7 72% 30.12 0.0
13 18:45 Calm 10.00 Mostly Cloudy BKN046 BKN060 BKN100 70.5 61.7 74% 30.12 0.0
13 18:25 Calm 10.00 Overcast SCT036 BKN048 OVC060 72.3 62.2 71% 30.12 0.0
13 18:05 Calm 10.00 Light Rain OVC038 73.4 61.2 66% 30.12 0.0
13 17:45 Calm 10.00 Overcast OVC043 72.5 61 67% 30.12 0.0
13 17:25 Calm 10.00 Overcast BKN045 OVC050 72.5 60.1 65% 30.12 0.0
13 17:05 Calm 10.00 Overcast BKN048 OVC050 73.4 59 61% 30.12 0.0
13 16:45 Calm 10.00 Overcast BKN050 OVC085 72.9 59.7 64% 30.12 0.0
13 16:25 S 3 10.00 Mostly Cloudy SCT044 BKN050 BKN085 75 59.4 58% 77 30.12 0.0
13 16:05 SE 3 10.00 Overcast SCT042 BKN060 OVC100 72.7 60.3 65% 30.12 0.0
13 15:45 Calm 10.00 Overcast SCT044 BKN060 OVC090 73.4 59.2 61% 30.12 0.0
13 15:25 SE 3 10.00 Mostly Cloudy SCT044 SCT060 BKN095 73.8 59.5 61% 30.13 0.0
13 15:05 SE 5 10.00 Partly Cloudy SCT035 SCT042 SCT095 74.8 60.4 61% 30.13 0.0
13 14:45 SE 3 10.00 Mostly Cloudy SCT038 SCT045 BKN095 75.6 62.4 64% 78 30.13 0.0
13 14:25 SE 3 10.00 Overcast SCT032 BKN060 OVC095 73.6 62.1 67% 30.14 0.0
13 14:05 SE 3 10.00 Mostly Cloudy SCT033 BKN050 73 61.5 67% 30.14 0.0
13 13:45 E 6 10.00 Partly Cloudy SCT050 74.8 62.2 65% 30.15 0.0
13 13:25 E 6 10.00 Partly Cloudy SCT075 SCT085 73.8 63.1 70% 30.15 0.0
13 13:05 SE 3 10.00 Overcast SCT028 BKN075 OVC085 70.3 61.7 74% 30.16 0.0
13 12:45 Calm 10.00 Mostly Cloudy SCT028 BKN070 BKN080 70.7 61.5 73% 30.16 0.0
13 12:25 Calm 10.00 Overcast SCT030 BKN070 OVC080 70.9 61.3 72% 30.16 0.0
13 12:05 Calm 10.00 Overcast SCT030 BKN075 OVC080 70.7 60.6 71% 30.17 0.0
13 11:25 Calm 10.00 Overcast SCT040 SCT050 OVC065 72.5 60.3 66% 30.17 0.0
13 11:05 Calm 10.00 Mostly Cloudy SCT046 SCT050 BKN065 71.1 59.4 67% 30.17 0.0
13 10:45 Calm 10.00 Partly Cloudy SCT065 72.1 61.2 69% 30.17 0.0
13 10:25 Calm 10.00 Mostly Cloudy BKN065 69.8 60.6 73% 30.17 0.0
13 10:05 E 5 10.00 Mostly Cloudy BKN065 69.3 61.7 77% 30.17 0.0
13 09:45 Calm 10.00 Mostly Cloudy BKN065 68.4 60.1 75% 30.18 0.0
13 09:25 Calm 10.00 Partly Cloudy SCT065 66.7 60.6 81% 30.18 0.0
13 09:05 Calm 10.00 Partly Cloudy SCT044 SCT065 63 59.2 88% 30.17 0.0
13 08:45 Calm 10.00 Mostly Cloudy BKN042 63.5 59.2 86% 30.17 0.0
13 08:25 Calm 10.00 Partly Cloudy SCT042 62.2 59.2 90% 30.17 0.0
13 08:05 Calm 10.00 Partly Cloudy SCT046 60.4 58.1 92% 30.16 0.0
13 07:45 Calm 10.00 Fair CLR 60.8 58.1 91% 30.15 0.0
13 07:25 Calm 10.00 Partly Cloudy SCT050 59.4 57.6 94% 30.15 0.0
13 07:05 Calm 10.00 Overcast BKN048 OVC050 59.4 57.6 94% 30.15 0.0
13 06:45 Calm 10.00 Mostly Cloudy BKN050 BKN055 57.7 56.3 95% 30.15 0.0
13 06:25 Calm 10.00 Fair CLR 56.7 55.8 97% 30.14 0.0
13 06:05 Calm 10.00 Fair CLR 57.7 56.5 96% 30.13 0.0
13 05:45 Calm 2.50 Fog/Mist CLR 56.3 55.8 98% 30.12 0.0
13 05:25 Calm 10.00 Fair CLR 58.5 56.3 93% 30.12 0.0
13 05:05 Calm 10.00 Fair CLR 59 57 93% 30.12 0.0
13 04:45 Calm 10.00 Fair CLR 58.1 56.7 95% 30.11 0.0
13 04:25 Calm 10.00 Fair CLR 58.6 56.8 94% 30.11 0.0
13 04:05 SW 3 10.00 Fair CLR 59.2 56.8 92% 30.1 0.0
13 03:45 Calm 10.00 Fair CLR 59 56.8 93% 30.1 0.0
13 03:25 Calm 10.00 Fair CLR 59 56.7 92% 30.1 0.0
13 03:05 Calm 10.00 Fair CLR 59.5 56.5 90% 30.1 0.0
13 02:45 Calm 10.00 Fair CLR 59.5 56.8 91% 30.11 0.0
13 02:25 Calm 10.00 Fair CLR 59 57 93% 30.12 0.0
13 02:05 Calm 10.00 Fair CLR 58.5 56.8 94% 30.12 0.0
13 01:45 Calm 10.00 Fair CLR 61.3 57.2 86% 30.12 0.0
13 01:25 Calm 10.00 Fair CLR 60.8 57.2 88% 30.13 0.0
13 01:05 Calm 10.00 Fair CLR 62.1 57.2 84% 30.13 0.0
13 00:45 Calm 10.00 Fair CLR 63.9 57.2 79% 30.14 0.0
13 00:25 Calm 10.00 Fair CLR 64.9 57.2 76% 30.14 0.0
13 00:05 Calm 10.00 Partly Cloudy SCT065 65.8 57.2 74% 30.14 0.0
12 23:45 Calm 10.00 Overcast SCT047 OVC065 65.3 56.8 74% 30.14 0.0
12 23:25 Calm 10.00 Mostly Cloudy BKN039 BKN050 BKN065 64.4 57.6 79% 30.15 0.0
12 23:05 Calm 10.00 Overcast OVC036 65.5 57.2 75% 30.15 0.0
12 22:45 Calm 10.00 Overcast SCT034 OVC050 64.9 57.6 77% 30.15 0.0
12 22:25 Calm 10.00 Partly Cloudy SCT050 65.3 57.4 76% 30.14 0.0
12 22:05 Calm 10.00 Fair CLR 65.1 57.6 77% 30.14 0.0
12 21:45 Calm 10.00 Fair CLR 65.8 58.1 76% 30.13 0.0
12 21:25 Calm 10.00 Fair CLR 64.9 58.3 79% 30.13 0.0
12 21:05 Calm 10.00 Partly Cloudy SCT070 64.9 58.5 80% 30.13 0.0
12 20:45 Calm 10.00 Mostly Cloudy SCT050 BKN070 65.8 59 79% 30.13 0.0
12 20:25 Calm 10.00 Partly Cloudy SCT050 66.7 59 76% 30.13 0.0
12 20:05 Calm 10.00 Overcast OVC050 67.5 58.6 73% 30.12 0.0
12 19:45 Calm 10.00 Mostly Cloudy BKN048 67.6 58.6 73% 30.12 0.0
12 19:25 Calm 10.00 Partly Cloudy SCT046 68.2 59.4 74% 30.12 0.0
12 19:05 Calm 10.00 Partly Cloudy SCT044 SCT050 68.4 59.9 75% 30.11 0.0
12 18:45 SE 3 10.00 Overcast BKN046 OVC050 68.9 59.5 72% 30.12 0.0
12 18:25 SE 5 10.00 Mostly Cloudy SCT043 BKN048 BKN070 69.3 59.2 70% 30.12 0.0
12 18:05 Calm 10.00 Mostly Cloudy SCT032 BKN041 BKN055 70.2 59.5 69% 30.12 0.0
12 17:45 SE 5 10.00 Overcast OVC034 69.4 59.2 70% 30.12 0.0
12 17:25 Calm 10.00 Overcast SCT034 BKN040 OVC047 69.3 59.4 71% 30.12 0.0
12 17:05 Calm 10.00 Partly Cloudy SCT039 SCT047 69.8 59.2 69% 30.12 0.0
12 16:45 Calm 10.00 Partly Cloudy SCT055 SCT070 71.6 59.4 65% 30.12 0.0
12 16:25 Calm 10.00 Overcast OVC055 72.7 59.5 64% 30.12 0.0
12 16:05 SE 3 10.00 Mostly Cloudy BKN055 70.7 58.5 65% 30.12 0.0
12 15:45 SE 5 10.00 Mostly Cloudy SCT038 BKN055 71.8 59.2 65% 30.12 0.0
12 15:25 SE 7 10.00 Mostly Cloudy SCT031 SCT038 BKN055 70.3 59 67% 30.12 0.0
12 15:05 SE 6 10.00 Mostly Cloudy SCT031 BKN040 BKN048 69.6 58.1 67% 30.13 0.0
12 14:45 SE 3 10.00 Mostly Cloudy SCT032 SCT044 BKN060 71.6 60.4 68% 30.13 0.0
12 14:25 S 3 10.00 Mostly Cloudy SCT032 SCT047 BKN050 69.8 59.4 70% 30.13 0.0
12 14:05 E 3 10.00 Mostly Cloudy BKN050 71.1 59.2 66% 30.13 0.0
12 13:45 SE 3 10.00 Partly Cloudy SCT029 SCT050 70.7 58.8 66% 30.14 0.0
12 13:25 SE 3 10.00 Mostly Cloudy SCT029 SCT042 BKN050 71.1 58.8 65% 30.14 0.0
12 13:05 S 3 10.00 Partly Cloudy SCT037 SCT044 SCT050 69.1 57 66% 30.15 0.0
12 12:45 S 3 10.00 Partly Cloudy SCT037 SCT047 69.6 57.6 66% 30.15 0.0
12 12:25 SE 6 10.00 Mostly Cloudy SCT036 BKN049 70 58.8 68% 30.15 0.0
12 12:05 E 3 10.00 Mostly Cloudy SCT034 BKN047 69.8 57 64% 30.15 0.0
12 11:45 SE 3 10.00 Partly Cloudy SCT032 SCT047 69.6 57.7 66% 30.15 0.0
12 11:25 Calm 10.00 Partly Cloudy SCT029 SCT036 SCT050 68.4 56.1 65% 30.16 0.0
12 11:05 Calm 10.00 Mostly Cloudy SCT029 BKN038 BKN048 67.3 55.6 66% 30.16 0.0
12 10:45 Calm 10.00 Mostly Cloudy BKN038 BKN048 66.9 57.2 71% 30.16 0.0
12 10:25 SE 3 10.00 Fair CLR 65.5 54.5 68% 30.16 0.0
12 10:05 Calm 10.00 Fair CLR 63.9 54 70% 30.16 0.0
12 09:45 Calm 10.00 Fair CLR 62.2 52.2 70% 30.15 0.0
12 09:25 Calm 10.00 Fair CLR 61.5 52.5 72% 30.15 0.0
12 09:05 Calm 10.00 Fair CLR 59.9 54 81% 30.15 0.0
12 08:45 Calm 10.00 Fair CLR 57.4 52 82% 30.15 0.0
12 08:25 Calm 10.00 Fair CLR 57.4 53.1 86% 30.14 0.0
12 08:05 Calm 10.00 Fair CLR 57.2 52.9 86% 30.14 0.0
12 07:45 Calm 10.00 Fair CLR 56.8 51.1 81% 30.13 0.0
12 07:25 Calm 10.00 Fair CLR 53.8 49.1 84% 30.13 0.0
12 07:05 Calm 10.00 Fair CLR 53.6 49.1 85% 30.13 0.0
12 06:45 Calm 10.00 Fair CLR 51.3 48.4 90% 30.12 0.0
12 06:25 Calm 10.00 Fair CLR 52.3 48.2 86% 30.12 0.0
12 06:05 Calm 10.00 Fair CLR 51.4 48.2 89% 30.12 0.0
12 05:45 Calm 10.00 Fair CLR 53.1 48.2 84% 30.12 0.0
12 05:25 Calm 10.00 Fair CLR 54.3 47.8 79% 30.12 0.0
12 05:05 Calm 10.00 Mostly Cloudy BKN060 53.4 48.2 83% 30.12 0.0
12 04:45 Calm 10.00 Partly Cloudy SCT060 53.8 48.2 82% 30.11 0.0
12 04:25 Calm 10.00 Fair CLR 54.3 48 79% 30.11 0.0
12 04:05 Calm 10.00 Partly Cloudy SCT060 55.2 48 77% 30.11 0.0
12 03:45 Calm 10.00 Fair CLR 55.8 47.8 75% 30.1 0.0
12 03:25 Calm 10.00 Fair CLR 56.1 47.5 73% 30.1 0.0
12 03:05 Calm 10.00 Fair CLR 58.1 47.1 67% 30.1 0.0
12 02:45 Calm 10.00 Partly Cloudy SCT060 58.3 47.3 67% 30.1 0.0
12 02:25 Calm 10.00 Overcast SCT039 SCT048 OVC060 58.1 46.9 67% 30.1 0.0
12 02:05 Calm 10.00 Mostly Cloudy BKN040 BKN045 BKN065 58.5 46.9 66% 30.1 0.0
12 01:45 Calm 10.00 Overcast BKN038 OVC043 59.5 46.9 63% 30.1 0.0
12 01:25 Calm 10.00 Mostly Cloudy BKN038 BKN044 BKN060 59.5 46.2 62% 30.1 0.0
12 01:05 Calm 10.00 Mostly Cloudy BKN038 BKN050 60.3 44.8 57% 30.1 0.0
12 00:45 Calm 10.00 Mostly Cloudy SCT036 SCT043 BKN050 61 44.6 55% 30.1 0.0
12 00:25 Calm 10.00 Partly Cloudy SCT032 61.7 44.1 53% 30.1 0.0
12 00:05 Calm 10.00 Partly Cloudy SCT032 61.7 45 54% 30.1 0.0
11 23:45 Calm 10.00 Partly Cloudy SCT034 61.7 45 54% 30.09 0.0
11 23:25 Calm 10.00 Partly Cloudy SCT032 62.1 45.7 55% 30.09 0.0
11 22:45 Calm 10.00 Mostly Cloudy SCT035 BKN041 62.6 45.9 55% 30.08 0.0
11 22:25 Calm 10.00 Partly Cloudy SCT041 61.9 46.8 58% 30.08 0.0
11 22:05 Calm 10.00 Partly Cloudy SCT043 SCT060 62.6 47.7 58% 30.08 0.0
11 21:45 Calm 10.00 Mostly Cloudy SCT039 BKN060 63 47.5 57% 30.07 0.0
11 21:25 N 3 10.00 Mostly Cloudy BKN041 BKN060 62.6 48.6 60% 30.06 0.0
11 21:05 Calm 10.00 Mostly Cloudy SCT041 BKN060 BKN070 64 47.7 55% 30.05 0.0
11 20:45 N 3 10.00 Mostly Cloudy BKN041 65.7 47.5 52% 30.05 0.0
11 20:25 NW 3 10.00 Overcast BKN041 OVC047 66.7 47.8 51% 30.05 0.0
11 20:05 Calm 10.00 Overcast BKN047 OVC055 67.1 52.2 59% 30.04 0.0
11 19:45 Calm 10.00 Overcast OVC055 67.1 53.2 61% 30.04 0.0
11 19:25 E 6 10.00 Mostly Cloudy SCT048 BKN065 67.6 53.2 60% 30.03 0.0
11 19:05 Calm 10.00 Mostly Cloudy SCT043 BKN048 BKN055 68 53.2 59% 30.03 0.0
11 18:45 E 5 10.00 Overcast SCT050 OVC055 69.1 52.9 56% 30.03 0.0
11 18:25 E 5 10.00 Overcast SCT050 OVC065 69.6 51.6 53% 30.02 0.0
11 18:05 Calm 10.00 Partly Cloudy SCT065 70.3 46.4 43% 30.01 0.0
11 17:45 W 3 10.00 Fair CLR 71.8 45 38% 30.01 0.0
11 17:25 SW 5 10.00 Fair CLR 72.3 43.9 36% 30.01 0.0
11 17:05 W 8 10.00 Fair CLR 71.2 42.8 36% 30.01 0.0
11 16:45 NW 5 10.00 Fair CLR 72.3 43.7 36% 30.01 0.0
11 16:25 W 5 10.00 Fair CLR 71.1 44.8 39% 30.02 0.0
11 16:05 W 6 10.00 Fair CLR 70.7 44.6 39% 30.01 0.0
11 15:45 Calm 10.00 Fair CLR 70.2 44.2 39% 30.02 0.0
11 15:25 NW 6 10.00 Partly Cloudy SCT050 70.3 48 45% 30.02 0.0
11 15:05 W 5 10.00 Partly Cloudy SCT050 70.3 44.8 40% 30.02 0.0
11 14:45 W 9 10.00 Partly Cloudy SCT050 69.8 44.2 40% 30.02 0.0
11 14:25 SW 5 10.00 Partly Cloudy SCT050 68.7 44.6 42% 30.02 0.0
11 14:05 W 7 10.00 Mostly Cloudy BKN050 70.2 43.3 38% 30.02 0.0
11 13:45 SW 7 10.00 Partly Cloudy SCT050 69.1 44.6 41% 30.02 0.0
11 13:25 W 7 10.00 Partly Cloudy SCT050 68.7 45.5 43% 30.02 0.0
11 13:05 W 9 10.00 Partly Cloudy SCT043 SCT060 68.2 46.6 46% 30.03 0.0
11 12:45 W 10 G 17 10.00 Mostly Cloudy SCT043 BKN060 67.5 47.3 49% 30.03 0.0
11 12:25 NW 6 10.00 Mostly Cloudy SCT039 BKN047 66.6 46.2 48% 30.02 0.0
11 12:05 W 9 10.00 Mostly Cloudy BKN037 BKN045 67.1 46.9 49% 30.03 0.0
11 11:45 W 6 10.00 Partly Cloudy SCT037 65.7 46.2 50% 30.03 0.0
11 11:25 W 7 10.00 Fair CLR 64.9 46.9 52% 30.03 0.0
11 11:05 W 12 G 17 10.00 Fair CLR 63.7 47.1 55% 30.03 0.0
11 10:45 W 12 10.00 Partly Cloudy SCT035 SCT041 63.3 48.6 59% 30.04 0.0
11 10:25 NW 6 10.00 Partly Cloudy SCT037 62.6 48.9 61% 30.03 0.0
11 10:05 W 6 10.00 Partly Cloudy SCT021 SCT026 SCT033 61.5 49.8 66% 30.03 0.0
11 09:45 SW 3 10.00 Mostly Cloudy BKN021 60.6 51.1 71% 30.03 0.0
11 09:25 Calm 10.00 Mostly Cloudy SCT016 BKN023 58.8 50.2 73% 30.03 0.0
Date Time (edt) Wind (mph) Vis. (mi.) Weather Sky Cond. Air Dwpt Max. Min. Relative Humidity Wind Chill (°F) Heat Index (°F) altimeter (in) sea level (mb) 1 hr 3 hr 6 hr
6 hour
Temperature (ºF) Pressure Precipitation (in)